Location: Ab? ar R?sh Ba?r?
(24.1861°N, 32.8847°E)
Time: 20:00:28
(UTC+00:00)

H-2A R/B - Pass Details

Date: 31 May 2022
Orbit: 576 x 652 km, 98.5° (Epoch: 03 July)

Event Time Altitude Azimuth Distance (km) Brightness Sun altitude
Rises 18:51:38 0° 343° (NNW) 2,799 6.4 -27.3°
Reaches altitude 10° 18:55:08 10° 310° (NW) 1,908 5.5 -27.9°
Maximum altitude 18:56:35 12° 290° (WNW) 1,805 5.2 -28.1°
Drops below altitude 10° 18:58:02 10° 269° (W) 1,918 5.1 -28.3°
Sets 19:01:35 0° 237° (WSW) 2,835 5.6 -28.9°
